Wind_Speed
19 19 19 20 20 21 21 21 21 21 22 23 23 23 23 24 25 25 26 27 27 27 27 27 27 27 27 27 28 29 29 28 28 28 29 29 28 28
21 21 21 21 22 22 22 22 22 23 22 23 24 24 24 24 25 26 26 27 28 28 28 29 30 29 29 29 29 29 30 31 30 30 30 30 30 30
22 23 23 23 23 23 23 23 24 24 24 23 24 25 25 26 26 27 28 28 28 29 30 31 31 32 31 31 31 30 30 30 30 30 31 31 31 31
24 24 24 24 24 24 24 25 25 25 25 25 25 25 25 26 27 27 28 28 28 29 30 30 31 32 32 31 32 32 31 31 31 31 31 32 32 32
26 26 26 26 26 26 26 26 26 26 26 26 26 25 25 26 27 28 29 29 29 30 30 31 31 31 32 32 32 32 33 33 33 32 32 33 33 33
27 27 27 27 27 27 27 27 27 27 27 27 27 26 26 27 28 28 28 30 31 31 32 32 32 32 32 32 33 34 34 34 33 33 34 34 34 34
28 28 27 27 27 28 28 27 27 27 27 28 27 28 28 29 28 29 30 31 32 32 32 32 32 33 33 33 34 34 35 35 34 34 34 35 35 34
29 29 30 30 29 28 28 28 27 27 27 27 27 28 29 30 29 29 29 30 31 32 32 33 33 34 34 34 34 34 34 35 35 35 35 35 35 35
30 31 31 31 30 29 28 28 28 29 29 29 29 30 30 30 30 30 30 31 31 31 31 32 33 34 34 34 34 33 33 34 34 35 36 36 36 35
31 31 31 30 30 30 29 29 29 30 30 29 30 30 30 31 31 31 31 31 31 31 32 31 32 33 33 33 34 33 33 33 33 33 34 34 35 34
31 31 31 30 30 30 30 30 30 31 31 31 31 31 31 32 32 32 32 32 31 32 32 33 32 32 32 33 33 33 33 33 33 33 33 32 33 33
31 31 31 31 32 32 32 32 32 32 32 33 33 33 32 32 32 32 32 31 31 31 31 32 32 32 31 32 32 33 33 33 33 33 32 32 31 31
32 32 33 33 33 33 33 33 33 33 33 33 33 33 32 33 33 33 32 31 31 31 31 31 31 31 31 30 31 31 31 31 31 32 32 32 31 30
33 33 33 34 33 33 33 33 33 33 34 33 33 32 32 32 32 32 32 32 32 31 31 31 31 31 31 31 31 30 31 31 31 30 30 31 31 30
33 33 34 34 33 33 33 34 34 34 33 32 32 31 31 31 31 32 32 32 32 31 31 30 30 30 30 30 30 29 29 29 29 29 29 30 31 31
33 33 33 32 32 32 32 33 32 33 33 32 32 30 30 30 30 30 30 30 30 30 30 31 31 30 30 30 29 29 29 28 28 28 28 28 29 29
32 32 31 31 30 30 31 31 31 31 32 31 31 30 29 29 29 29 29 29 29 29 29 30 30 29 29 28 28 28 28 27 27 27 28 28 28 28
31 31 31 30 29 29 30 30 30 30 30 30 29 29 29 29 29 28 28 28 29 28 28 28 28 28 28 28 28 27 27 27 27 27 28 28 28 28
31 31 30 30 30 30 30 29 30 30 29 29 29 29 29 28 28 27 27 27 27 27 27 27 27 27 27 27 27 26 26 27 27 28 28 28 27 28
32 31 31 30 30 30 30 29 29 29 29 29 29 28 28 27 27 27 27 27 26 26 26 26 26 25 25 25 25 26 26 26 26 27 27 27 27 27
31 31 31 30 30 30 30 30 30 30 29 28 28 28 27 27 27 26 26 26 26 25 25 25 24 24 24 24 24 24 25 25 25 25 25 26 26 26
32 31 31 31 30 29 29 29 29 28 28 27 27 27 27 26 26 25 25 24 24 24 24 24 24 24 24 23 23 23 23 24 24 24 25 25 25 25
31 31 30 30 29 28 28 28 28 27 27 27 27 27 27 26 25 25 24 24 24 23 23 23 23 23 23 22 22 22 22 23 24 24 24 25 25 25
Wind_Direction
300 298 296 296 295 292 289 287 286 285 284 284 284 283 280 278 277 274 272 271 270 270 270 271 271 270 270 267 265 263 263 263 262 262 262 261 261 262
297 297 295 295 295 292 289 288 288 287 285 283 282 283 282 282 279 275 273 272 270 269 269 270 271 272 272 270 266 265 265 264 263 262 261 260 261 262
294 294 294 292 291 290 287 288 287 287 286 284 282 281 281 281 280 277 275 274 273 270 271 271 271 270 270 269 268 266 265 264 263 262 261 260 261 262
292 292 293 292 291 290 288 287 286 287 287 286 284 282 281 280 280 279 277 276 275 274 273 274 273 271 269 269 268 266 265 264 263 263 262 261 261 261
292 292 292 291 290 290 289 288 287 286 286 286 285 284 283 280 279 279 277 275 276 275 274 276 275 272 269 269 266 265 264 264 264 264 264 263 263 261
292 291 291 290 289 289 289 288 287 286 286 285 284 283 282 281 281 280 279 277 277 277 277 275 275 273 272 271 268 266 265 264 264 263 263 263 263 262
291 290 290 290 290 290 289 288 288 288 287 285 284 284 283 283 283 282 281 279 278 278 276 276 276 275 273 271 269 268 267 265 264 263 262 262 262 262
291 290 290 289 289 290 289 287 287 288 288 287 285 285 285 284 283 283 283 282 280 278 277 277 277 276 274 271 269 268 267 265 264 263 262 262 262 262
289 289 289 289 288 289 288 287 287 286 286 286 286 285 285 285 284 284 284 283 282 280 278 278 277 276 274 272 271 270 268 266 265 262 261 261 260 261
289 289 289 287 288 289 289 288 288 287 287 287 287 286 285 284 284 284 283 283 282 280 278 278 277 275 274 273 271 270 269 267 265 264 262 261 259 259
289 289 288 288 287 287 287 288 287 287 287 287 287 286 286 285 284 283 282 281 281 279 279 279 277 275 274 273 272 271 269 268 266 265 264 263 261 260
288 288 288 287 286 285 286 287 287 286 287 287 287 287 286 285 284 283 282 281 280 279 278 278 276 275 273 273 272 271 270 268 267 266 264 263 261 260
288 287 285 285 287 286 286 285 285 286 287 288 288 287 287 287 286 283 282 281 281 280 279 278 277 275 273 271 272 272 270 269 268 266 264 261 260 260
288 288 286 285 285 285 285 286 286 286 287 288 288 287 288 287 285 283 281 280 280 280 280 279 278 276 274 273 272 273 272 270 268 266 264 262 261 260
289 288 287 286 284 284 285 286 287 288 288 289 288 287 287 287 285 283 281 280 280 280 280 279 278 277 275 273 272 272 271 269 267 265 264 263 260 258
289 290 289 288 286 286 286 287 287 288 287 287 288 287 287 286 285 284 283 282 282 281 281 280 279 277 275 273 273 271 270 268 266 265 264 263 261 258
288 289 289 289 288 288 288 288 288 289 289 287 286 286 287 287 285 284 282 282 282 282 281 282 280 278 275 273 273 272 269 266 265 265 263 262 261 259
288 289 290 290 289 290 290 288 288 289 289 288 286 287 287 286 284 282 282 282 281 281 281 281 280 278 275 272 272 270 268 265 265 264 264 263 261 260
289 289 290 290 289 289 290 289 288 288 288 288 287 287 288 288 286 284 283 283 282 281 281 279 278 277 274 272 271 269 268 268 266 264 263 262 262 261
287 287 288 288 288 288 289 288 288 288 289 289 288 288 288 288 288 286 284 284 283 281 280 280 279 278 275 273 270 268 268 266 265 264 263 262 262 261
286 286 287 287 287 288 289 290 289 289 289 289 289 289 288 289 289 289 286 284 283 281 280 280 279 279 277 274 272 269 267 265 264 264 263 264 263 261
287 286 286 287 286 286 288 291 292 292 290 289 289 289 289 289 290 289 287 286 285 283 281 279 278 278 276 275 273 271 268 266 265 265 264 262 262 261
287 287 287 286 285 285 288 290 291 291 290 291 291 290 289 288 288 288 288 286 285 283 280 278 277 277 276 274 273 271 270 267 267 265 264 263 262 261
Height
5845 5843 5842 5840 5839 5838 5837 5836 5835 5834 5833 5831 5829 5828 5827 5826 5825 5825 5825 5825 5825 5825 5825 5825 5825 5825 5825 5826 5826 5826 5827 5827 5828 5828 5829 5830 5830 5831
5840 5838 5836 5835 5833 5832 5831 5830 5828 5828 5827 5825 5823 5822 5821 5820 5819 5818 5818 5817 5817 5817 5817 5817 5817 5817 5817 5817 5818 5818 5818 5819 5820 5820 5821 5821 5822 5823
5834 5832 5830 5829 5827 5825 5824 5823 5822 5821 5820 5819 5817 5816 5814 5813 5812 5811 5810 5810 5810 5809 5809 5809 5809 5809 5809 5809 5809 5809 5810 5810 5811 5812 5812 5813 5814 5815
5827 5825 5824 5822 5820 5819 5817 5816 5815 5813 5812 5811 5810 5809 5807 5806 5805 5803 5803 5802 5801 5801 5801 5800 5800 5800 5800 5800 5800 5800 5801 5801 5802 5803 5804 5805 5805 5806
5820 5818 5816 5815 5813 5811 5810 5808 5807 5806 5804 5804 5803 5801 5800 5798 5797 5796 5795 5794 5793 5792 5792 5791 5791 5790 5790 5790 5790 5791 5791 5792 5793 5793 5794 5795 5796 5797
5813 5811 5809 5807 5805 5804 5803 5801 5799 5798 5796 5795 5794 5793 5792 5791 5789 5788 5787 5786 5784 5783 5783 5782 5781 5781 5781 5781 5781 5781 5781 5782 5782 5783 5784 5785 5786 5787
5805 5804 5802 5800 5798 5796 5795 5793 5792 5790 5788 5787 5786 5785 5784 5782 5781 5779 5778 5777 5775 5774 5773 5773 5772 5771 5771 5770 5771 5771 5771 5771 5772 5773 5774 5775 5776 5777
5797 5796 5794 5792 5790 5788 5787 5785 5783 5782 5781 5779 5778 5776 5775 5773 5772 5770 5769 5768 5766 5765 5764 5763 5762 5761 5760 5760 5760 5760 5760 5761 5762 5763 5764 5765 5766 5767
5789 5787 5785 5783 5781 5780 5778 5776 5775 5773 5772 5771 5769 5768 5766 5764 5762 5761 5759 5758 5757 5755 5754 5753 5752 5751 5750 5750 5750 5750 5750 5750 5751 5752 5753 5754 5756 5757
5781 5779 5776 5774 5773 5771 5769 5768 5766 5764 5763 5761 5760 5758 5756 5754 5753 5751 5750 5748 5747 5745 5744 5743 5742 5741 5740 5740 5739 5739 5740 5740 5741 5742 5743 5744 5745 5747
5772 5770 5767 5766 5764 5762 5761 5759 5757 5755 5753 5752 5750 5748 5746 5744 5742 5741 5739 5738 5737 5735 5734 5733 5732 5731 5730 5730 5729 5729 5729 5730 5731 5731 5732 5734 5735 5737
5762 5760 5759 5757 5755 5753 5751 5750 5748 5746 5744 5742 5740 5738 5736 5734 5732 5730 5729 5727 5726 5725 5724 5723 5721 5721 5721 5720 5719 5719 5719 5719 5720 5721 5722 5724 5725 5727
5753 5751 5749 5747 5745 5743 5741 5740 5738 5736 5734 5732 5730 5727 5725 5723 5721 5720 5718 5717 5716 5715 5714 5712 5711 5710 5710 5710 5710 5709 5709 5709 5710 5711 5712 5714 5716 5717
5744 5741 5739 5737 5735 5733 5731 5729 5727 5725 5723 5721 5719 5717 5715 5713 5711 5709 5708 5706 5705 5704 5703 5702 5701 5700 5700 5700 5700 5700 5699 5700 5700 5701 5703 5704 5706 5708
5734 5731 5729 5727 5725 5723 5721 5719 5717 5715 5713 5711 5709 5707 5705 5702 5700 5699 5697 5696 5695 5694 5693 5692 5691 5691 5691 5690 5690 5690 5690 5690 5691 5692 5693 5694 5696 5698
5723 5721 5719 5716 5714 5712 5710 5708 5706 5705 5702 5701 5699 5697 5695 5693 5691 5689 5688 5687 5686 5685 5683 5683 5682 5681 5681 5681 5681 5681 5681 5681 5682 5683 5684 5685 5686 5688
5713 5711 5709 5706 5704 5702 5700 5698 5696 5694 5692 5690 5688 5687 5685 5683 5681 5680 5678 5677 5677 5676 5675 5673 5672 5671 5671 5671 5671 5671 5671 5672 5673 5674 5675 5676 5677 5679
5703 5702 5699 5697 5695 5693 5691 5689 5687 5685 5683 5680 5679 5677 5675 5674 5672 5670 5669 5668 5667 5666 5665 5664 5663 5662 5662 5661 5662 5662 5662 5663 5664 5665 5666 5668 5669 5670
5694 5692 5690 5688 5686 5684 5682 5680 5678 5676 5674 5672 5670 5668 5666 5664 5663 5661 5660 5659 5658 5657 5656 5655 5654 5653 5653 5653 5653 5653 5653 5654 5655 5656 5657 5659 5660 5661
5684 5682 5680 5678 5676 5674 5672 5670 5668 5667 5665 5663 5661 5659 5657 5656 5654 5653 5651 5650 5649 5648 5647 5646 5645 5644 5644 5644 5644 5645 5645 5645 5646 5647 5648 5650 5651 5653
5674 5672 5671 5669 5667 5665 5662 5660 5659 5657 5655 5654 5652 5650 5649 5647 5645 5644 5643 5641 5640 5640 5639 5638 5637 5636 5636 5636 5636 5636 5637 5637 5638 5639 5640 5641 5642 5644
5665 5663 5661 5659 5657 5655 5653 5651 5650 5648 5646 5645 5643 5642 5640 5639 5637 5636 5634 5633 5632 5631 5631 5630 5629 5629 5628 5628 5628 5628 5629 5629 5629 5630 5631 5633 5634 5636
5655 5653 5651 5649 5648 5646 5645 5643 5641 5639 5638 5636 5635 5634 5632 5631 5629 5628 5626 5625 5624 5624 5623 5622 5622 5622 5621 5621 5621 5621 5621 5621 5621 5622 5624 5625 5626 5627